Tracking 17742 objects as of 25-June-2016
HD Live streaming from Space Station
objects crossing your sky now

INTELSAT 501

Track INTELSAT 501 now!
INTELSAT 501 is classified as:


NORAD ID: 12474
Int'l Code: 1981-050A
Perigee: 36,167.0 km
Apogee: 36,223.8 km
Inclination: 15.2 °
Period: 1,456.7 minutes
Semi major axis: 42566 km
RCS: 3.981 m2 (large)
Launch date: May 23, 1981
Source: International Telecommunications Satellite Organization (ITSO)
Launch site: AIR FORCE EASTERN TEST RANGE (AFETR)
Your satellite tracking list
Your tracking list is empty





NASA's NSSDC Master Catalog

Two Line Element Set (TLE):
1 12474U 81050A   16171.29355446 -.00000186 +00000-0 +00000-0 0  9992
2 12474 015.2065 356.1616 0006671 174.0948 206.5610 00.98855759101592
Source of the keplerian elements: AFSPC

N2YO: 867